{"data":{"norad_id":42986,"intl_designator":"2017-037E","name":"COSMOS 2523","alt_names":[],"object_type":"PAYLOAD","status":"ACTIVE","operator":null,"country":"CIS","launch_date":"2017-06-23","launch_site_code":"PLMSC","launch_vehicle":null,"mission":null,"orbit_class":"UNKNOWN","rcs_meters":null,"size_class":null,"mass_kg":null,"dimensions":null,"purposes":[],"wikipedia_slug":null,"has_3d_model":false,"image_url":null,"decayed_at":null,"tle_current":{"epoch":"2026-09-20T04:59:08.438784Z","epoch_age_seconds":73619,"freshness":"FRESH","line1":"1 42986U 17037E   26263.20773656  .00000195  00000+0  22003-4 0  9997","line2":"2 42986  97.5014 272.2651 0064855 271.0470  88.3321 14.95694165483168","mean_motion":14.95694165,"eccentricity":0.0064855,"inclination_deg":97.5014,"raan_deg":272.2651,"arg_perigee_deg":271.047,"mean_anomaly_deg":88.3321,"bstar":2.2003e-5,"rev_number":48316,"period_min":96.276366766464,"perigee_km":535.09054377229,"apogee_km":625.34737894709,"semimajor_km":6958.3559613597,"source":"CELESTRAK","updated_at":"2026-09-20T09:00:14.260231Z"}}}